Weather History for Ambler, AK

Change the Weather History Date:

Saturday, November 17, 2012

  Actual Average Record
Temperature  
Mean Temperature -8 °F -  
Max Temperature 0 °F 13 °F 33 °F (1996)
Min Temperature -16 °F 5 °F -35 °F (1991)
Degree Days  
Heating Degree Days 73    
Moisture  
Dew Point -16 °F    
Average Humidity 72    
Maximum Humidity 84    
Minimum Humidity 59    
Precipitation  
Precipitation 0.00 in - - ()
Sea Level Pressure  
Sea Level Pressure 30.08 in    
Wind  
Wind Speed 4 mph (NNE)    
Max Wind Speed 9 mph    
Max Gust Speed -    
Visibility 10 miles    
Events      
Averages and records for this station are not official NWS values.
T = Trace of Precipitation, MM = Missing Value Source: NWS Daily Summary

Daily Weather History Graph

Daily Weather History Graph

Search for Another Location

Airport:

Trip Planner

Search our weather history database for the weather conditions in past years. The results will help you decide how hot, cold, wet, or windy it might be!

Date:

Astronomy

Nov. 17, 2012 Rise Set
Actual Time 10:43 AM AKST 3:48 PM AKST
Civil Twilight 9:27 AM AKST 5:04 PM AKST
Nautical Twilight 8:16 AM AKST 6:15 PM AKST
Astronomical Twilight 7:12 AM AKST 7:19 PM AKST
Moon 2:28 PM AKST (11/17) 8:27 PM AKST (11/17)
Length of Visible Light 7h 37m
Length of Day
5h 04m
Waxing Crescent, 21% of the Moon is Illuminated
Nov 17
Waxing Crescent
Nov 20
First Quarter
Nov 28
Full
Dec 6
Last Quarter
Dec 12
New

Hourly Weather History & Observations

Time (AKST) Temp. Windchill Dew Point Humidity Pressure Visibility Wind Dir Wind Speed Gust Speed Precip Events Conditions
12:16 AM -0.4 °F -15.7 °F -9.4 °F 66% 30.25 in 10.0 mi NNE 9.2 mph - N/A   Clear
12:36 AM -0.4 °F -15.7 °F -9.4 °F 66% 30.24 in 10.0 mi NNE 9.2 mph - N/A   Clear
12:56 AM -0.4 °F -13.4 °F -9.4 °F 66% 30.25 in 10.0 mi NNE 6.9 mph - N/A   Clear
1:16 AM -0.4 °F -12.0 °F -9.4 °F 66% 30.24 in 10.0 mi NNE 5.8 mph - N/A   Clear
1:36 AM -0.4 °F -13.4 °F -9.4 °F 66% 30.24 in 10.0 mi NNE 6.9 mph - N/A   Clear
1:56 AM -2.2 °F -16.8 °F -11.2 °F 66% 30.23 in 10.0 mi NNE 8.1 mph - N/A   Clear
2:16 AM -0.4 °F -14.7 °F -9.4 °F 66% 30.23 in 10.0 mi NNE 8.1 mph - N/A   Clear
2:36 AM -2.2 °F -14.2 °F -11.2 °F 66% 30.23 in 10.0 mi NNE 5.8 mph - N/A   Clear
2:56 AM -2.2 °F -16.8 °F -9.4 °F 71% 30.22 in 10.0 mi NNE 8.1 mph - N/A   Clear
3:16 AM -2.2 °F -16.8 °F -9.4 °F 71% 30.21 in 10.0 mi NNE 8.1 mph - N/A   Clear
3:36 AM -2.2 °F -15.6 °F -9.4 °F 71% 30.21 in 10.0 mi NNE 6.9 mph - N/A   Clear
3:56 AM -2.2 °F -15.6 °F -11.2 °F 66% 30.21 in 10.0 mi NNE 6.9 mph - N/A   Clear
4:16 AM -2.2 °F -15.6 °F -11.2 °F 66% 30.20 in 10.0 mi NE 6.9 mph - N/A   Clear
4:36 AM -4.0 °F -16.3 °F - N/A% 30.20 in 10.0 mi NNE 5.8 mph - N/A   Clear
4:56 AM -4.0 °F -14.6 °F -11.2 °F 71% 30.19 in 10.0 mi NE 4.6 mph - N/A   Clear
5:16 AM -4.0 °F -17.8 °F -11.2 °F 71% 30.19 in 10.0 mi NNE 6.9 mph - N/A   Clear
5:36 AM -4.0 °F -16.3 °F - N/A% 30.18 in 10.0 mi NNE 5.8 mph - N/A   Clear
5:56 AM -4.0 °F -14.6 °F -11.2 °F 71% 30.18 in 10.0 mi NNE 4.6 mph - N/A   Clear
6:16 AM -4.0 °F -12.4 °F -11.2 °F 71% 30.17 in 10.0 mi NE 3.5 mph - N/A   Clear
6:36 AM -4.0 °F -17.8 °F -11.2 °F 71% 30.16 in 10.0 mi NNE 6.9 mph - N/A   Clear
6:56 AM -4.0 °F -16.3 °F -11.2 °F 71% 30.16 in 10.0 mi NNE 5.8 mph - N/A   Clear
7:16 AM -5.8 °F -18.4 °F -13.0 °F 71% 30.15 in 10.0 mi NNE 5.8 mph - N/A   Clear
7:36 AM -4.0 °F -16.3 °F -11.2 °F 71% 30.14 in 10.0 mi NNE 5.8 mph - N/A   Clear
7:56 AM -4.0 °F -14.6 °F -11.2 °F 71% 30.14 in 10.0 mi NNE 4.6 mph - N/A   Clear
8:16 AM -4.0 °F -12.4 °F -11.2 °F 71% 30.13 in 10.0 mi NNE 3.5 mph - N/A   Clear
8:36 AM -4.0 °F -12.4 °F -11.2 °F 71% 30.13 in 10.0 mi NNE 3.5 mph - N/A   Clear
8:56 AM -4.0 °F -16.3 °F -13.0 °F 65% 30.12 in 10.0 mi NNE 5.8 mph - N/A   Clear
9:16 AM -4.0 °F - -13.0 °F 65% 30.12 in 10.0 mi Calm Calm - N/A   Clear
9:36 AM -9.4 °F -18.6 °F -20.2 °F 59% 30.11 in 10.0 mi NE 3.5 mph - N/A   Clear
9:56 AM -7.6 °F - -11.2 °F 84% 30.11 in 10.0 mi Calm Calm - N/A   Clear
10:16 AM -9.4 °F - -18.4 °F 65% 30.11 in 4.0 mi Calm Calm - N/A   Clear
10:36 AM -7.6 °F -16.5 °F -16.6 °F 65% 30.10 in 10.0 mi NE 3.5 mph - N/A   Clear
10:56 AM -9.4 °F - -16.6 °F 71% 30.09 in 10.0 mi Calm Calm - N/A   Clear
11:16 AM -9.4 °F - -18.4 °F 65% 30.08 in 10.0 mi Calm Calm - N/A   Clear
11:36 AM -11.2 °F - -16.6 °F 77% 30.08 in 10.0 mi Calm Calm - N/A   Clear
11:56 AM -11.2 °F - -20.2 °F 64% 30.08 in 10.0 mi Calm Calm - N/A   Clear
12:16 PM -5.8 °F - -9.4 °F 84% 30.07 in 10.0 mi Calm Calm - N/A   Clear
12:36 PM -4.0 °F - -14.8 °F 60% 30.06 in 10.0 mi Calm Calm - N/A   Clear
12:56 PM -2.2 °F - -11.2 °F 66% 30.05 in 10.0 mi Calm Calm - N/A   Clear
1:16 PM -7.6 °F -16.5 °F -18.4 °F 59% 30.05 in 10.0 mi SSW 3.5 mph - N/A   Clear
1:36 PM -9.4 °F - -18.4 °F 65% 30.04 in 10.0 mi Calm Calm - N/A   Clear
1:56 PM -11.2 °F - -20.2 °F 64% 30.04 in 10.0 mi Calm Calm - N/A   Clear
2:16 PM -9.4 °F - -14.8 °F 77% 30.03 in 10.0 mi Calm Calm - N/A   Clear
2:36 PM -9.4 °F - -16.6 °F 71% 30.02 in 10.0 mi Calm Calm - N/A   Clear
2:56 PM -11.2 °F - -18.4 °F 70% 30.01 in 10.0 mi Calm Calm - N/A   Clear
3:16 PM -11.2 °F - -18.4 °F 70% 30.01 in 8.0 mi Calm Calm - N/A   Clear
3:36 PM -13.0 °F - -18.4 °F 77% 30.00 in 3.0 mi Calm Calm - N/A   Partly Cloudy
3:56 PM -14.8 °F - -20.2 °F 77% 30.00 in 10.0 mi Calm Calm - N/A   Clear
4:16 PM -14.8 °F - -20.2 °F 77% 30.00 in 10.0 mi Calm Calm - N/A   Clear
4:36 PM -14.8 °F - -23.8 °F 64% 30.00 in 10.0 mi Calm Calm - N/A   Clear
4:56 PM -14.8 °F - -20.2 °F 77% 29.99 in 10.0 mi Calm Calm - N/A   Clear
5:16 PM -14.8 °F - -18.4 °F 84% 29.98 in 10.0 mi Calm Calm - N/A   Clear
5:36 PM -14.8 °F - -20.2 °F 77% 29.98 in 3.0 mi Calm Calm - N/A   Clear
5:56 PM -14.8 °F - -20.2 °F 77% 29.98 in 10.0 mi Calm Calm - N/A   Clear
6:16 PM -14.8 °F - -20.2 °F 77% 29.98 in 10.0 mi Calm Calm - N/A   Clear
6:36 PM -16.6 °F - -23.8 °F 70% 29.98 in 10.0 mi Calm Calm - N/A   Clear
6:56 PM -14.8 °F - -18.4 °F 84% 29.97 in 10.0 mi Calm Calm - N/A   Clear
7:16 PM -14.8 °F - -20.2 °F 77% 29.98 in 10.0 mi Calm Calm - N/A   Clear
7:36 PM -14.8 °F - -20.2 °F 77% 29.98 in 10.0 mi Calm Calm - N/A   Clear
7:56 PM -16.6 °F - -23.8 °F 70% 29.98 in 10.0 mi Calm Calm - N/A   Clear
8:16 PM -16.6 °F - -22.0 °F 76% 29.98 in 10.0 mi Calm Calm - N/A   Clear
8:36 PM -16.6 °F - -20.2 °F 84% 29.98 in 10.0 mi Calm Calm - N/A   Clear
8:56 PM -14.8 °F - -18.4 °F 84% 29.97 in 10.0 mi Calm Calm - N/A   Clear
9:16 PM -14.8 °F - -20.2 °F 77% 29.97 in 10.0 mi Calm Calm - N/A   Clear
9:36 PM -14.8 °F - -18.4 °F 84% 29.97 in 10.0 mi Calm Calm - N/A   Clear
9:56 PM -14.8 °F - -20.2 °F 77% 29.97 in 10.0 mi Calm Calm - N/A   Clear
10:16 PM -14.8 °F - -23.8 °F 64% 29.96 in 10.0 mi Calm Calm - N/A   Clear
10:36 PM -16.6 °F - -22.0 °F 76% 29.96 in 10.0 mi Calm Calm - N/A   Clear
10:56 PM -14.8 °F - -18.4 °F 84% 29.96 in 10.0 mi Calm Calm - N/A   Clear
11:16 PM -14.8 °F - -18.4 °F 84% 29.96 in 10.0 mi Calm Calm - N/A   Clear
11:36 PM -14.8 °F - -18.4 °F 84% 29.96 in 10.0 mi Calm Calm - N/A   Clear
11:56 PM -14.8 °F -24.8 °F -18.4 °F 84% 29.96 in 10.0 mi SSW 3.5 mph - N/A   Clear